owner,sensor,date,latitude,longitude,vertical_datum,wind_speed,wind_to_direction,wind_speed_of_gust,qcFlag 
TCOON,ioos:station:TCOON:524:1,2019-01-01T00:00:00Z,29.8672,-93.9310,0.0,1.0,173.0,1.8,'11111222,11111222,11111222' 
TCOON,ioos:station:TCOON:524:1,2019-01-01T00:06:00Z,29.8672,-93.9310,0.0,0.7,237.0,1.2,'11111222,11111222,11111222' 
TCOON,ioos:station:TCOON:524:1,2019-01-01T00:12:00Z,29.8672,-93.9310,0.0,0.1,311.0,0.9,'11111222,11111222,11111222' 
TCOON,ioos:station:TCOON:524:1,2019-01-01T00:18:00Z,29.8672,-93.9310,0.0,0.6,107.0,0.8,'11111222,11111222,11111222' 
TCOON,ioos:station:TCOON:524:1,2019-01-01T00:24:00Z,29.8672,-93.9310,0.0,0.6,107.0,0.8,'1111122,1111122,1111122' 
TCOON,ioos:station:TCOON:524:1,2019-01-01T00:30:00Z,29.8672,-93.9310,0.0,1.6,151.0,1.9,'11111222,11111222,11111222' 
TCOON,ioos:station:TCOON:524:1,2019-01-01T00:36:00Z,29.8672,-93.9310,0.0,2.0,177.0,2.6,'11111222,11111222,11111222' 
TCOON,ioos:station:TCOON:524:1,2019-01-01T00:42:00Z,29.8672,-93.9310,0.0,1.4,183.0,2.5,'11111222,11111222,11111222' 
TCOON,ioos:station:TCOON:524:1,2019-01-01T00:48:00Z,29.8672,-93.9310,0.0,1.1,192.0,1.9,'11111222,11111222,11111222' 
TCOON,ioos:station:TCOON:524:1,2019-01-01T00:54:00Z,29.8672,-93.9310,0.0,1.3,220.0,1.9,'11111222,11111222,11111222' 
TCOON,ioos:station:TCOON:524:1,2019-01-01T01:00:00Z,29.8672,-93.9310,0.0,0.2,217.0,1.9,'11111222,11111222,11111222' 
TCOON,ioos:station:TCOON:524:1,2019-01-01T01:06:00Z,29.8672,-93.9310,0.0,0.6,187.0,0.8,'11111222,11111222,11111222' 
TCOON,ioos:station:TCOON:524:1,2019-01-01T01:12:00Z,29.8672,-93.9310,0.0,0.9,187.0,1.2,'11111222,11111222,11111222' 
TCOON,ioos:station:TCOON:524:1,2019-01-01T01:18:00Z,29.8672,-93.9310,0.0,1.7,243.0,1.8,'11111222,11111222,11111222' 
TCOON,ioos:station:TCOON:524:1,2019-01-01T01:24:00Z,29.8672,-93.9310,0.0,1.7,243.0,1.8,'1111122,1111122,1111122' 
TCOON,ioos:station:TCOON:524:1,2019-01-01T01:30:00Z,29.8672,-93.9310,0.0,0.5,196.0,1.1,'11111222,11111222,11111222' 
TCOON,ioos:station:TCOON:524:1,2019-01-01T01:36:00Z,29.8672,-93.9310,0.0,1.4,143.0,1.6,'11111222,11111222,11111222' 
TCOON,ioos:station:TCOON:524:1,2019-01-01T01:42:00Z,29.8672,-93.9310,0.0,1.6,172.0,2.1,'11111222,11111222,11111222' 
TCOON,ioos:station:TCOON:524:1,2019-01-01T01:48:00Z,29.8672,-93.9310,0.0,1.1,188.0,1.9,'11111222,11111222,11111222' 
TCOON,ioos:station:TCOON:524:1,2019-01-01T01:54:00Z,29.8672,-93.9310,0.0,1.2,182.0,1.5,'11111222,11111222,11111222' 
TCOON,ioos:station:TCOON:524:1,2019-01-01T02:00:00Z,29.8672,-93.9310,0.0,0.9,201.0,2.0,'11111222,11111222,11111222' 
TCOON,ioos:station:TCOON:524:1,2019-01-01T02:06:00Z,29.8672,-93.9310,0.0,0.8,246.0,1.5,'11111222,11111222,11111222' 
TCOON,ioos:station:TCOON:524:1,2019-01-01T02:12:00Z,29.8672,-93.9310,0.0,0.2,195.0,0.7,'11111222,11111222,11111222' 
TCOON,ioos:station:TCOON:524:1,2019-01-01T02:18:00Z,29.8672,-93.9310,0.0,0.4,205.0,1.2,'11111222,11111222,11111222' 
TCOON,ioos:station:TCOON:524:1,2019-01-01T02:24:00Z,29.8672,-93.9310,0.0,0.4,205.0,1.2,'1111122,1111122,1111122' 
TCOON,ioos:station:TCOON:524:1,2019-01-01T02:30:00Z,29.8672,-93.9310,0.0,0.1,224.0,1.6,'11111222,11111222,11111222' 
TCOON,ioos:station:TCOON:524:1,2019-01-01T02:36:00Z,29.8672,-93.9310,0.0,0.4,263.0,0.6,'11111222,11111222,11111222' 
TCOON,ioos:station:TCOON:524:1,2019-01-01T02:42:00Z,29.8672,-93.9310,0.0,1.3,249.0,1.6,'11111222,11111222,11111222' 
TCOON,ioos:station:TCOON:524:1,2019-01-01T02:48:00Z,29.8672,-93.9310,0.0,0.5,256.0,1.2,'11111222,11111222,11111222' 
TCOON,ioos:station:TCOON:524:1,2019-01-01T02:54:00Z,29.8672,-93.9310,0.0,1.3,255.0,1.5,'11111222,11111222,11111222' 
TCOON,ioos:station:TCOON:524:1,2019-01-01T03:00:00Z,29.8672,-93.9310,0.0,2.3,221.0,2.6,'11111222,11111222,11111222' 
TCOON,ioos:station:TCOON:524:1,2019-01-01T03:06:00Z,29.8672,-93.9310,0.0,1.4,171.0,2.1,'11111222,11111222,11111222' 
TCOON,ioos:station:TCOON:524:1,2019-01-01T03:12:00Z,29.8672,-93.9310,0.0,0.3,194.0,1.1,'11111222,11111222,11111222' 
TCOON,ioos:station:TCOON:524:1,2019-01-01T03:18:00Z,29.8672,-93.9310,0.0,1.3,264.0,1.7,'11111222,11111222,11111222' 
TCOON,ioos:station:TCOON:524:1,2019-01-01T03:24:00Z,29.8672,-93.9310,0.0,1.3,264.0,1.7,'1111122,1111122,1111122' 
TCOON,ioos:station:TCOON:524:1,2019-01-01T03:30:00Z,29.8672,-93.9310,0.0,0.5,341.0,1.5,'11111222,11111222,11111222' 
TCOON,ioos:station:TCOON:524:1,2019-01-01T03:36:00Z,29.8672,-93.9310,0.0,0.0,257.0,0.7,'11111222,11111222,11111222' 
TCOON,ioos:station:TCOON:524:1,2019-01-01T03:42:00Z,29.8672,-93.9310,0.0,0.4,185.0,0.8,'11111222,11111222,11111222' 
TCOON,ioos:station:TCOON:524:1,2019-01-01T03:48:00Z,29.8672,-93.9310,0.0,1.1,221.0,1.3,'11111222,11111222,11111222' 
TCOON,ioos:station:TCOON:524:1,2019-01-01T03:54:00Z,29.8672,-93.9310,0.0,0.8,191.0,1.2,'11111222,11111222,11111222' 
TCOON,ioos:station:TCOON:524:1,2019-01-01T04:00:00Z,29.8672,-93.9310,0.0,1.0,161.0,1.2,'11111222,11111222,11111222' 
TCOON,ioos:station:TCOON:524:1,2019-01-01T04:06:00Z,29.8672,-93.9310,0.0,0.8,164.0,1.1,'11111222,11111222,11111222' 
TCOON,ioos:station:TCOON:524:1,2019-01-01T04:12:00Z,29.8672,-93.9310,0.0,1.0,212.0,1.3,'11111222,11111222,11111222' 
TCOON,ioos:station:TCOON:524:1,2019-01-01T04:18:00Z,29.8672,-93.9310,0.0,0.8,207.0,1.1,'11111222,11111222,11111222' 
TCOON,ioos:station:TCOON:524:1,2019-01-01T04:24:00Z,29.8672,-93.9310,0.0,0.8,207.0,1.1,'1111122,1111122,1111122' 
TCOON,ioos:station:TCOON:524:1,2019-01-01T04:30:00Z,29.8672,-93.9310,0.0,1.4,264.0,1.7,'11111222,11111222,11111222' 
TCOON,ioos:station:TCOON:524:1,2019-01-01T04:36:00Z,29.8672,-93.9310,0.0,0.9,254.0,1.6,'11111222,11111222,11111222' 
TCOON,ioos:station:TCOON:524:1,2019-01-01T04:42:00Z,29.8672,-93.9310,0.0,0.2,192.0,0.7,'11111222,11111222,11111222' 
TCOON,ioos:station:TCOON:524:1,2019-01-01T04:48:00Z,29.8672,-93.9310,0.0,0.7,135.0,1.0,'11111222,11111222,11111222' 
TCOON,ioos:station:TCOON:524:1,2019-01-01T04:54:00Z,29.8672,-93.9310,0.0,0.0,135.0,0.4,'11111222,11111222,11111222' 
TCOON,ioos:station:TCOON:524:1,2019-01-01T05:00:00Z,29.8672,-93.9310,0.0,0.2,178.0,0.5,'11111222,11111222,11111222' 
TCOON,ioos:station:TCOON:524:1,2019-01-01T05:06:00Z,29.8672,-93.9310,0.0,0.0,248.0,0.5,'11111222,11111222,11111222' 
TCOON,ioos:station:TCOON:524:1,2019-01-01T05:12:00Z,29.8672,-93.9310,0.0,0.5,316.0,0.7,'11111222,11111222,11111222' 
TCOON,ioos:station:TCOON:524:1,2019-01-01T05:18:00Z,29.8672,-93.9310,0.0,0.3,39.0,0.7,'11111222,11111222,11111222' 
TCOON,ioos:station:TCOON:524:1,2019-01-01T05:24:00Z,29.8672,-93.9310,0.0,0.3,39.0,0.7,'1111122,1111122,1111122' 
TCOON,ioos:station:TCOON:524:1,2019-01-01T05:30:00Z,29.8672,-93.9310,0.0,0.9,21.0,1.1,'11111222,11111222,11111222' 
TCOON,ioos:station:TCOON:524:1,2019-01-01T05:36:00Z,29.8672,-93.9310,0.0,0.9,12.0,1.2,'11111222,11111222,11111222' 
TCOON,ioos:station:TCOON:524:1,2019-01-01T05:42:00Z,29.8672,-93.9310,0.0,0.5,332.0,1.1,'11111222,11111222,11111222' 
TCOON,ioos:station:TCOON:524:1,2019-01-01T05:48:00Z,29.8672,-93.9310,0.0,1.2,298.0,1.6,'11111222,11111222,11111222' 
TCOON,ioos:station:TCOON:524:1,2019-01-01T05:54:00Z,29.8672,-93.9310,0.0,1.1,299.0,1.8,'11111222,11111222,11111222' 
TCOON,ioos:station:TCOON:524:1,2019-01-01T06:00:00Z,29.8672,-93.9310,0.0,1.8,331.0,2.3,'11111222,11111222,11111222' 
TCOON,ioos:station:TCOON:524:1,2019-01-01T06:06:00Z,29.8672,-93.9310,0.0,2.3,326.0,2.9,'11111222,11111222,11111222' 
TCOON,ioos:station:TCOON:524:1,2019-01-01T06:12:00Z,29.8672,-93.9310,0.0,1.8,332.0,3.2,'11111222,11111222,11111222' 
TCOON,ioos:station:TCOON:524:1,2019-01-01T06:18:00Z,29.8672,-93.9310,0.0,2.8,323.0,3.4,'11111222,11111222,11111222' 
TCOON,ioos:station:TCOON:524:1,2019-01-01T06:24:00Z,29.8672,-93.9310,0.0,2.8,323.0,3.4,'1111122,1111122,1111122' 
TCOON,ioos:station:TCOON:524:1,2019-01-01T06:30:00Z,29.8672,-93.9310,0.0,2.2,322.0,2.7,'11111222,11111222,11111222' 
TCOON,ioos:station:TCOON:524:1,2019-01-01T06:36:00Z,29.8672,-93.9310,0.0,2.0,323.0,3.0,'11111222,11111222,11111222' 
TCOON,ioos:station:TCOON:524:1,2019-01-01T06:42:00Z,29.8672,-93.9310,0.0,2.1,325.0,2.9,'11111222,11111222,11111222' 
TCOON,ioos:station:TCOON:524:1,2019-01-01T06:48:00Z,29.8672,-93.9310,0.0,1.7,324.0,2.7,'11111222,11111222,11111222' 
TCOON,ioos:station:TCOON:524:1,2019-01-01T06:54:00Z,29.8672,-93.9310,0.0,1.5,324.0,2.1,'11111222,11111222,11111222' 
TCOON,ioos:station:TCOON:524:1,2019-01-01T07:00:00Z,29.8672,-93.9310,0.0,2.0,341.0,2.7,'11111222,11111222,11111222' 
TCOON,ioos:station:TCOON:524:1,2019-01-01T07:06:00Z,29.8672,-93.9310,0.0,0.9,13.0,2.0,'11111222,11111222,11111222' 
TCOON,ioos:station:TCOON:524:1,2019-01-01T07:12:00Z,29.8672,-93.9310,0.0,0.6,59.0,1.2,'11111222,11111222,11111222' 
TCOON,ioos:station:TCOON:524:1,2019-01-01T07:18:00Z,29.8672,-93.9310,0.0,0.9,123.0,1.5,'11111222,11111222,11111222' 
TCOON,ioos:station:TCOON:524:1,2019-01-01T07:24:00Z,29.8672,-93.9310,0.0,0.9,123.0,1.5,'1111122,1111122,1111122' 
TCOON,ioos:station:TCOON:524:1,2019-01-01T07:30:00Z,29.8672,-93.9310,0.0,1.0,83.0,1.3,'11111222,11111222,11111222' 
TCOON,ioos:station:TCOON:524:1,2019-01-01T07:36:00Z,29.8672,-93.9310,0.0,1.2,75.0,1.5,'11111222,11111222,11111222' 
TCOON,ioos:station:TCOON:524:1,2019-01-01T07:42:00Z,29.8672,-93.9310,0.0,0.6,57.0,1.5,'11111222,11111222,11111222' 
TCOON,ioos:station:TCOON:524:1,2019-01-01T07:48:00Z,29.8672,-93.9310,0.0,0.8,343.0,1.0,'11111222,11111222,11111222' 
TCOON,ioos:station:TCOON:524:1,2019-01-01T07:54:00Z,29.8672,-93.9310,0.0,1.1,336.0,1.6,'11111222,11111222,11111222' 
TCOON,ioos:station:TCOON:524:1,2019-01-01T08:00:00Z,29.8672,-93.9310,0.0,1.0,4.0,1.5,'11111222,11111222,11111222' 
TCOON,ioos:station:TCOON:524:1,2019-01-01T08:06:00Z,29.8672,-93.9310,0.0,0.8,24.0,1.0,'11111222,11111222,11111222' 
TCOON,ioos:station:TCOON:524:1,2019-01-01T08:12:00Z,29.8672,-93.9310,0.0,1.0,15.0,1.2,'11111222,11111222,11111222' 
TCOON,ioos:station:TCOON:524:1,2019-01-01T08:18:00Z,29.8672,-93.9310,0.0,1.7,351.0,1.9,'11111222,11111222,11111222' 
TCOON,ioos:station:TCOON:524:1,2019-01-01T08:24:00Z,29.8672,-93.9310,0.0,1.7,351.0,1.9,'1111122,1111122,1111122' 
TCOON,ioos:station:TCOON:524:1,2019-01-01T08:30:00Z,29.8672,-93.9310,0.0,1.0,18.0,1.4,'11111222,11111222,11111222' 
TCOON,ioos:station:TCOON:524:1,2019-01-01T08:36:00Z,29.8672,-93.9310,0.0,1.6,8.0,2.0,'11111222,11111222,11111222' 
TCOON,ioos:station:TCOON:524:1,2019-01-01T08:42:00Z,29.8672,-93.9310,0.0,1.4,353.0,2.2,'11111222,11111222,11111222' 
TCOON,ioos:station:TCOON:524:1,2019-01-01T08:48:00Z,29.8672,-93.9310,0.0,1.3,355.0,2.0,'11111222,11111222,11111222' 
TCOON,ioos:station:TCOON:524:1,2019-01-01T08:54:00Z,29.8672,-93.9310,0.0,0.9,46.0,1.6,'11111222,11111222,11111222' 
TCOON,ioos:station:TCOON:524:1,2019-01-01T09:00:00Z,29.8672,-93.9310,0.0,1.8,359.0,2.3,'11111222,11111222,11111222' 
TCOON,ioos:station:TCOON:524:1,2019-01-01T09:06:00Z,29.8672,-93.9310,0.0,0.8,44.0,2.0,'11111222,11111222,11111222' 
TCOON,ioos:station:TCOON:524:1,2019-01-01T09:12:00Z,29.8672,-93.9310,0.0,1.2,20.0,1.5,'11111222,11111222,11111222' 
TCOON,ioos:station:TCOON:524:1,2019-01-01T09:18:00Z,29.8672,-93.9310,0.0,1.6,5.0,2.0,'11111222,11111222,11111222' 
TCOON,ioos:station:TCOON:524:1,2019-01-01T09:24:00Z,29.8672,-93.9310,0.0,1.6,5.0,2.0,'1111122,1111122,1111122' 
TCOON,ioos:station:TCOON:524:1,2019-01-01T09:30:00Z,29.8672,-93.9310,0.0,1.9,6.0,2.6,'11111222,11111222,11111222' 
TCOON,ioos:station:TCOON:524:1,2019-01-01T09:36:00Z,29.8672,-93.9310,0.0,2.2,4.0,2.7,'11111222,11111222,11111222' 
TCOON,ioos:station:TCOON:524:1,2019-01-01T09:42:00Z,29.8672,-93.9310,0.0,3.0,349.0,3.5,'11111222,11111222,11111222' 
TCOON,ioos:station:TCOON:524:1,2019-01-01T09:48:00Z,29.8672,-93.9310,0.0,2.7,345.0,3.8,'11111222,11111222,11111222' 
TCOON,ioos:station:TCOON:524:1,2019-01-01T09:54:00Z,29.8672,-93.9310,0.0,2.6,354.0,3.6,'11111222,11111222,11111222' 
TCOON,ioos:station:TCOON:524:1,2019-01-01T10:00:00Z,29.8672,-93.9310,0.0,2.4,353.0,3.4,'11111222,11111222,11111222' 
TCOON,ioos:station:TCOON:524:1,2019-01-01T10:06:00Z,29.8672,-93.9310,0.0,2.3,2.0,2.6,'11111222,11111222,11111222' 
TCOON,ioos:station:TCOON:524:1,2019-01-01T10:12:00Z,29.8672,-93.9310,0.0,2.6,347.0,3.4,'11111222,11111222,11111222' 
TCOON,ioos:station:TCOON:524:1,2019-01-01T10:18:00Z,29.8672,-93.9310,0.0,2.6,3.0,3.1,'11111222,11111222,11111222' 
TCOON,ioos:station:TCOON:524:1,2019-01-01T10:24:00Z,29.8672,-93.9310,0.0,2.6,3.0,3.1,'1111122,1111122,1111122' 
TCOON,ioos:station:TCOON:524:1,2019-01-01T10:30:00Z,29.8672,-93.9310,0.0,2.6,342.0,3.2,'11111222,11111222,11111222' 
TCOON,ioos:station:TCOON:524:1,2019-01-01T10:36:00Z,29.8672,-93.9310,0.0,2.4,347.0,3.0,'11111222,11111222,11111222' 
TCOON,ioos:station:TCOON:524:1,2019-01-01T10:42:00Z,29.8672,-93.9310,0.0,3.3,341.0,4.5,'11111222,11111222,11111222' 
TCOON,ioos:station:TCOON:524:1,2019-01-01T10:48:00Z,29.8672,-93.9310,0.0,3.6,341.0,4.4,'11111222,11111222,11111222' 
TCOON,ioos:station:TCOON:524:1,2019-01-01T10:54:00Z,29.8672,-93.9310,0.0,3.6,337.0,4.4,'11111222,11111222,11111222' 
TCOON,ioos:station:TCOON:524:1,2019-01-01T11:00:00Z,29.8672,-93.9310,0.0,3.3,353.0,4.3,'11111222,11111222,11111222' 
TCOON,ioos:station:TCOON:524:1,2019-01-01T11:06:00Z,29.8672,-93.9310,0.0,2.7,357.0,4.0,'11111222,11111222,11111222' 
TCOON,ioos:station:TCOON:524:1,2019-01-01T11:12:00Z,29.8672,-93.9310,0.0,2.6,354.0,3.1,'11111222,11111222,11111222' 
TCOON,ioos:station:TCOON:524:1,2019-01-01T11:18:00Z,29.8672,-93.9310,0.0,2.7,343.0,3.3,'11111222,11111222,11111222' 
TCOON,ioos:station:TCOON:524:1,2019-01-01T11:24:00Z,29.8672,-93.9310,0.0,2.7,343.0,3.3,'1111122,1111122,1111122' 
TCOON,ioos:station:TCOON:524:1,2019-01-01T11:30:00Z,29.8672,-93.9310,0.0,2.8,351.0,3.8,'11111222,11111222,11111222' 
TCOON,ioos:station:TCOON:524:1,2019-01-01T11:36:00Z,29.8672,-93.9310,0.0,2.8,360.0,3.3,'11111222,11144222,11111222' 
TCOON,ioos:station:TCOON:524:1,2019-01-01T11:42:00Z,29.8672,-93.9310,0.0,3.6,0.0,4.4,'11111222,11111222,11111222' 
TCOON,ioos:station:TCOON:524:1,2019-01-01T11:48:00Z,29.8672,-93.9310,0.0,4.0,359.0,4.6,'11111222,11111222,11111222' 
TCOON,ioos:station:TCOON:524:1,2019-01-01T11:54:00Z,29.8672,-93.9310,0.0,3.0,19.0,4.9,'11111222,11111222,11111222' 
TCOON,ioos:station:TCOON:524:1,2019-01-01T12:00:00Z,29.8672,-93.9310,0.0,3.5,2.0,4.0,'11111222,11111222,11111222' 
TCOON,ioos:station:TCOON:524:1,2019-01-01T12:06:00Z,29.8672,-93.9310,0.0,3.5,355.0,4.3,'11111222,11111222,11111222' 
TCOON,ioos:station:TCOON:524:1,2019-01-01T12:12:00Z,29.8672,-93.9310,0.0,3.0,357.0,4.0,'11111222,11111222,11111222' 
TCOON,ioos:station:TCOON:524:1,2019-01-01T12:18:00Z,29.8672,-93.9310,0.0,2.7,1.0,3.5,'11111222,11111222,11111222' 
TCOON,ioos:station:TCOON:524:1,2019-01-01T12:24:00Z,29.8672,-93.9310,0.0,2.7,1.0,3.5,'1111122,1111122,1111122' 
TCOON,ioos:station:TCOON:524:1,2019-01-01T12:30:00Z,29.8672,-93.9310,0.0,2.8,351.0,3.1,'11111222,11111222,11111222' 
TCOON,ioos:station:TCOON:524:1,2019-01-01T12:36:00Z,29.8672,-93.9310,0.0,3.0,355.0,3.7,'11111222,11111222,11111222' 
TCOON,ioos:station:TCOON:524:1,2019-01-01T12:42:00Z,29.8672,-93.9310,0.0,3.1,350.0,3.5,'11111222,11111222,11111222' 
TCOON,ioos:station:TCOON:524:1,2019-01-01T12:48:00Z,29.8672,-93.9310,0.0,3.9,342.0,4.6,'11111222,11111222,11111222' 
TCOON,ioos:station:TCOON:524:1,2019-01-01T12:54:00Z,29.8672,-93.9310,0.0,3.7,349.0,4.6,'11111222,11111222,11111222' 
TCOON,ioos:station:TCOON:524:1,2019-01-01T13:00:00Z,29.8672,-93.9310,0.0,3.9,349.0,5.2,'11111222,11111222,11111222' 
TCOON,ioos:station:TCOON:524:1,2019-01-01T13:06:00Z,29.8672,-93.9310,0.0,3.7,352.0,4.8,'11111222,11111222,11111222' 
TCOON,ioos:station:TCOON:524:1,2019-01-01T13:12:00Z,29.8672,-93.9310,0.0,3.4,354.0,4.6,'11111222,11111222,11111222' 
TCOON,ioos:station:TCOON:524:1,2019-01-01T13:18:00Z,29.8672,-93.9310,0.0,3.4,354.0,3.8,'11111222,11111222,11111222' 
TCOON,ioos:station:TCOON:524:1,2019-01-01T13:24:00Z,29.8672,-93.9310,0.0,3.4,354.0,3.8,'1111122,1111122,1111122' 
TCOON,ioos:station:TCOON:524:1,2019-01-01T13:30:00Z,29.8672,-93.9310,0.0,3.4,354.0,4.2,'11111222,11111222,11111222' 
TCOON,ioos:station:TCOON:524:1,2019-01-01T13:36:00Z,29.8672,-93.9310,0.0,3.7,360.0,4.2,'11111222,11144222,11111222' 
TCOON,ioos:station:TCOON:524:1,2019-01-01T13:42:00Z,29.8672,-93.9310,0.0,3.4,5.0,4.8,'11111222,11111222,11111222' 
TCOON,ioos:station:TCOON:524:1,2019-01-01T13:48:00Z,29.8672,-93.9310,0.0,3.0,14.0,3.9,'11111222,11111222,11111222' 
TCOON,ioos:station:TCOON:524:1,2019-01-01T13:54:00Z,29.8672,-93.9310,0.0,3.6,2.0,4.3,'11111222,11111222,11111222' 
TCOON,ioos:station:TCOON:524:1,2019-01-01T14:00:00Z,29.8672,-93.9310,0.0,3.5,0.0,4.1,'11111222,11111222,11111222' 
TCOON,ioos:station:TCOON:524:1,2019-01-01T14:06:00Z,29.8672,-93.9310,0.0,2.9,5.0,3.8,'11111222,11111222,11111222' 
TCOON,ioos:station:TCOON:524:1,2019-01-01T14:12:00Z,29.8672,-93.9310,0.0,3.0,7.0,3.7,'11111222,11111222,11111222' 
TCOON,ioos:station:TCOON:524:1,2019-01-01T14:18:00Z,29.8672,-93.9310,0.0,2.7,9.0,3.4,'11111222,11111222,11111222' 
TCOON,ioos:station:TCOON:524:1,2019-01-01T14:24:00Z,29.8672,-93.9310,0.0,2.7,9.0,3.4,'1111122,1111122,1111122' 
TCOON,ioos:station:TCOON:524:1,2019-01-01T14:30:00Z,29.8672,-93.9310,0.0,2.9,0.0,3.5,'11111222,11111222,11111222' 
TCOON,ioos:station:TCOON:524:1,2019-01-01T14:36:00Z,29.8672,-93.9310,0.0,3.5,359.0,4.2,'11111222,11111222,11111222' 
TCOON,ioos:station:TCOON:524:1,2019-01-01T14:42:00Z,29.8672,-93.9310,0.0,3.5,2.0,4.4,'11111222,11111222,11111222' 
TCOON,ioos:station:TCOON:524:1,2019-01-01T14:48:00Z,29.8672,-93.9310,0.0,3.8,359.0,5.1,'11111222,11111222,11111222' 
TCOON,ioos:station:TCOON:524:1,2019-01-01T14:54:00Z,29.8672,-93.9310,0.0,4.0,354.0,5.0,'11111222,11111222,11111222' 
TCOON,ioos:station:TCOON:524:1,2019-01-01T15:00:00Z,29.8672,-93.9310,0.0,4.4,4.0,5.7,'11111222,11111222,11111222' 
TCOON,ioos:station:TCOON:524:1,2019-01-01T15:06:00Z,29.8672,-93.9310,0.0,4.6,357.0,5.8,'11111222,11111222,11111222' 
TCOON,ioos:station:TCOON:524:1,2019-01-01T15:12:00Z,29.8672,-93.9310,0.0,4.1,6.0,5.0,'11111222,11111222,11111222' 
TCOON,ioos:station:TCOON:524:1,2019-01-01T15:18:00Z,29.8672,-93.9310,0.0,3.7,11.0,5.4,'11111222,11111222,11111222' 
TCOON,ioos:station:TCOON:524:1,2019-01-01T15:24:00Z,29.8672,-93.9310,0.0,3.7,11.0,5.4,'1111122,1111122,1111122' 
TCOON,ioos:station:TCOON:524:1,2019-01-01T15:30:00Z,29.8672,-93.9310,0.0,4.6,22.0,7.0,'11111222,11111222,11111222' 
TCOON,ioos:station:TCOON:524:1,2019-01-01T15:36:00Z,29.8672,-93.9310,0.0,5.1,23.0,6.6,'11111222,11111222,11111222' 
TCOON,ioos:station:TCOON:524:1,2019-01-01T15:42:00Z,29.8672,-93.9310,0.0,4.9,24.0,6.8,'11111222,11111222,11111222' 
TCOON,ioos:station:TCOON:524:1,2019-01-01T15:48:00Z,29.8672,-93.9310,0.0,5.5,21.0,6.5,'11111222,11111222,11111222' 
TCOON,ioos:station:TCOON:524:1,2019-01-01T15:54:00Z,29.8672,-93.9310,0.0,6.5,18.0,8.6,'11111222,11111222,11111222' 
TCOON,ioos:station:TCOON:524:1,2019-01-01T16:00:00Z,29.8672,-93.9310,0.0,5.3,19.0,8.4,'11111222,11111222,11111222' 
TCOON,ioos:station:TCOON:524:1,2019-01-01T16:06:00Z,29.8672,-93.9310,0.0,4.8,17.0,8.0,'11111222,11111222,11111222' 
TCOON,ioos:station:TCOON:524:1,2019-01-01T16:12:00Z,29.8672,-93.9310,0.0,5.1,14.0,6.4,'11111222,11111222,11111222' 
TCOON,ioos:station:TCOON:524:1,2019-01-01T16:18:00Z,29.8672,-93.9310,0.0,5.4,20.0,6.7,'11111222,11111222,11111222' 
TCOON,ioos:station:TCOON:524:1,2019-01-01T16:24:00Z,29.8672,-93.9310,0.0,5.4,20.0,6.7,'1111122,1111122,1111122' 
TCOON,ioos:station:TCOON:524:1,2019-01-01T16:30:00Z,29.8672,-93.9310,0.0,5.5,17.0,7.0,'11111222,11111222,11111222' 
TCOON,ioos:station:TCOON:524:1,2019-01-01T16:36:00Z,29.8672,-93.9310,0.0,5.1,23.0,6.5,'11111222,11111222,11111222' 
TCOON,ioos:station:TCOON:524:1,2019-01-01T16:42:00Z,29.8672,-93.9310,0.0,3.4,28.0,6.7,'11111222,11111222,11111222' 
TCOON,ioos:station:TCOON:524:1,2019-01-01T16:48:00Z,29.8672,-93.9310,0.0,4.9,22.0,6.7,'11111222,11111222,11111222' 
TCOON,ioos:station:TCOON:524:1,2019-01-01T16:54:00Z,29.8672,-93.9310,0.0,3.4,24.0,5.7,'11111222,11111222,11111222' 
TCOON,ioos:station:TCOON:524:1,2019-01-01T17:00:00Z,29.8672,-93.9310,0.0,3.5,32.0,6.1,'11111222,11111222,11111222' 
TCOON,ioos:station:TCOON:524:1,2019-01-01T17:06:00Z,29.8672,-93.9310,0.0,5.2,27.0,7.0,'11111222,11111222,11111222' 
TCOON,ioos:station:TCOON:524:1,2019-01-01T17:12:00Z,29.8672,-93.9310,0.0,4.2,37.0,8.1,'11111222,11111222,11111222' 
TCOON,ioos:station:TCOON:524:1,2019-01-01T17:18:00Z,29.8672,-93.9310,0.0,4.4,24.0,7.7,'11111222,11111222,11111222' 
TCOON,ioos:station:TCOON:524:1,2019-01-01T17:24:00Z,29.8672,-93.9310,0.0,4.4,24.0,7.7,'1111122,1111122,1111122' 
TCOON,ioos:station:TCOON:524:1,2019-01-01T17:30:00Z,29.8672,-93.9310,0.0,4.5,19.0,6.4,'11111222,11111222,11111222' 
TCOON,ioos:station:TCOON:524:1,2019-01-01T17:36:00Z,29.8672,-93.9310,0.0,4.7,18.0,6.3,'11111222,11111222,11111222' 
TCOON,ioos:station:TCOON:524:1,2019-01-01T17:42:00Z,29.8672,-93.9310,0.0,4.5,26.0,6.1,'11111222,11111222,11111222' 
TCOON,ioos:station:TCOON:524:1,2019-01-01T17:48:00Z,29.8672,-93.9310,0.0,4.8,21.0,7.0,'11111222,11111222,11111222' 
TCOON,ioos:station:TCOON:524:1,2019-01-01T17:54:00Z,29.8672,-93.9310,0.0,5.3,20.0,6.9,'11111222,11111222,11111222' 
TCOON,ioos:station:TCOON:524:1,2019-01-01T18:00:00Z,29.8672,-93.9310,0.0,3.4,36.0,6.3,'11111222,11111222,11111222' 
TCOON,ioos:station:TCOON:524:1,2019-01-01T18:06:00Z,29.8672,-93.9310,0.0,3.0,35.0,4.9,'11111222,11111222,11111222' 
TCOON,ioos:station:TCOON:524:1,2019-01-01T18:12:00Z,29.8672,-93.9310,0.0,4.3,28.0,6.5,'11111222,11111222,11111222' 
TCOON,ioos:station:TCOON:524:1,2019-01-01T18:18:00Z,29.8672,-93.9310,0.0,3.0,34.0,5.3,'11111222,11111222,11111222' 
TCOON,ioos:station:TCOON:524:1,2019-01-01T18:24:00Z,29.8672,-93.9310,0.0,3.0,34.0,5.3,'1111122,1111122,1111122' 
TCOON,ioos:station:TCOON:524:1,2019-01-01T18:30:00Z,29.8672,-93.9310,0.0,2.8,26.0,5.0,'11111222,11111222,11111222' 
TCOON,ioos:station:TCOON:524:1,2019-01-01T18:36:00Z,29.8672,-93.9310,0.0,2.9,47.0,5.3,'11111222,11111222,11111222' 
TCOON,ioos:station:TCOON:524:1,2019-01-01T18:42:00Z,29.8672,-93.9310,0.0,2.8,38.0,4.4,'11111222,11111222,11111222' 
TCOON,ioos:station:TCOON:524:1,2019-01-01T18:48:00Z,29.8672,-93.9310,0.0,2.1,35.0,4.6,'11111222,11111222,11111222' 
TCOON,ioos:station:TCOON:524:1,2019-01-01T18:54:00Z,29.8672,-93.9310,0.0,3.9,19.0,5.0,'11111222,11111222,11111222' 
TCOON,ioos:station:TCOON:524:1,2019-01-01T19:00:00Z,29.8672,-93.9310,0.0,3.7,22.0,5.1,'11111222,11111222,11111222' 
TCOON,ioos:station:TCOON:524:1,2019-01-01T19:06:00Z,29.8672,-93.9310,0.0,1.8,38.0,3.9,'11111222,11111222,11111222' 
TCOON,ioos:station:TCOON:524:1,2019-01-01T19:12:00Z,29.8672,-93.9310,0.0,1.9,34.0,4.6,'11111222,11111222,11111222' 
TCOON,ioos:station:TCOON:524:1,2019-01-01T19:18:00Z,29.8672,-93.9310,0.0,3.7,21.0,5.1,'11111222,11111222,11111222' 
TCOON,ioos:station:TCOON:524:1,2019-01-01T19:24:00Z,29.8672,-93.9310,0.0,3.7,21.0,5.1,'1111122,1111122,1111122' 
TCOON,ioos:station:TCOON:524:1,2019-01-01T19:30:00Z,29.8672,-93.9310,0.0,2.1,30.0,3.7,'11111222,11111222,11111222' 
TCOON,ioos:station:TCOON:524:1,2019-01-01T19:36:00Z,29.8672,-93.9310,0.0,2.5,29.0,5.7,'11111222,11111222,11111222' 
TCOON,ioos:station:TCOON:524:1,2019-01-01T19:42:00Z,29.8672,-93.9310,0.0,3.3,22.0,4.4,'11111222,11111222,11111222' 
TCOON,ioos:station:TCOON:524:1,2019-01-01T19:48:00Z,29.8672,-93.9310,0.0,2.8,20.0,3.8,'11111222,11111222,11111222' 
TCOON,ioos:station:TCOON:524:1,2019-01-01T19:54:00Z,29.8672,-93.9310,0.0,3.2,9.0,3.8,'11111222,11111222,11111222' 
TCOON,ioos:station:TCOON:524:1,2019-01-01T20:00:00Z,29.8672,-93.9310,0.0,2.8,11.0,4.5,'11111222,11111222,11111222' 
TCOON,ioos:station:TCOON:524:1,2019-01-01T20:06:00Z,29.8672,-93.9310,0.0,3.9,11.0,5.1,'11111222,11111222,11111222' 
TCOON,ioos:station:TCOON:524:1,2019-01-01T20:12:00Z,29.8672,-93.9310,0.0,4.6,8.0,5.4,'11111222,11111222,11111222' 
TCOON,ioos:station:TCOON:524:1,2019-01-01T20:18:00Z,29.8672,-93.9310,0.0,4.2,15.0,6.0,'11111222,11111222,11111222' 
TCOON,ioos:station:TCOON:524:1,2019-01-01T20:24:00Z,29.8672,-93.9310,0.0,4.2,15.0,6.0,'1111122,1111122,1111122' 